User: anonymous   Login
Location: Unspecified
(0.0000°N, 0.0000°E)
Time: 06:18:08
(UTC+02:00)
Language:

Transit 2A - Orbit

View from above orbital plane
View from above orbital plane
View from above satellite
View from above satellite

Ground track
Ground track

The orbit data is extracted from the following two-line orbital elements,

1 00045U 60007A   16243.11385336 -.00000020  00000-0  21960-4 0  9993
2 00045  66.6936  76.4552 0262786 246.0209 111.3177 14.33503280923846
Epoch (UTC): 30 August 2016 02:43:56
Eccentricity: 0.0262786
inclination: 66.6936°
perigee height: 592 km
apogee height: 968 km
right ascension of ascending node: 76.4552°
argument of perigee: 246.0209°
revolutions per day: 14.33503280
mean anomaly at epoch: 111.3177°
orbit number at epoch: 92384

The dashed part of the orbit path shows where the satellite is in the earth's shadow,  

DLR